sat.trackr.live / text

‹ back to catalog

STARLINK-32589

NORAD 62183 · 2024-225W

PAYLOAD ACTIVE UNKNOWN

§ Identity

Operator
Country
US
Launch date
2024-11-30
Launch site
AFWTR
Launch vehicle
Mass (kg)
RCS (m²)

Purposes: comms

External: N2YO · Heavens-Above · Gunter

§ Orbital elements

Epoch: 2026-05-24T22:54:23.792256Z

Period
96.11 min
Inclination
70.0015°
Eccentricity
0.0002686
Mean motion
14.98331201 rev/d
Perigee alt
570.2 km
Apogee alt
573.9 km
Semi-major
6,950.2 km
B*
8.5106e-5
RAAN
332.3700°
Arg perigee
265.6548°
Mean anomaly
94.4304°
Rev number
8,129

§ Raw data

STARLINK-325891 62183U 24225W   26144.95444204  .00000923  00000+0  85106-4 0  99912 62183  70.0015 332.3700 0002686 265.6548  94.4304 14.98331201 81297

JSON: /api/v1/satellites/62183 · /tle

For live sub-satellite position, see the globe view (requires WebGL).

§ Visibility from observer

Set your observer location to see the next 7 days of passes ≥ 10°. The values pass through the URL so the page stays shareable.

No JS? Fill the form by hand. The geolocation button needs JavaScript.